Tracking 27419 objects as of 10-Jun-2023
HD Live streaming from Space Station
objects crossing your sky now

OPS 4682 DEB

Track OPS 4682 DEB now!
10-day predictions


NORAD ID: 38378
Int'l Code: 1965-027CF
Perigee: 1,233.6 km
Apogee: 1,285.5 km
Inclination: 90.3 °
Period: 110.6 minutes
Semi major axis: 7630 km
RCS: 0.0101 m2 (small)
Launch date: April 3, 1965
Source: United States (US)
Launch site: AIR FORCE WESTERN TEST RANGE (AFWTR)

Note: This is SATELLITE DEBRIS
Your satellite tracking list
Your tracking list is empty




NASA's NSSDC Master Catalog

Two Line Element Set (TLE):
1 38378U 65027CF  23160.69000741 -.00000412  00000-0 -13427-2 0  9996
2 38378  90.2734 313.4525 0034026 238.3590 121.4213 13.02468130475316
Source of the keplerian elements: AFSPC